EW5144 Weather Reports


time (UTC)temp
C
wind
direction
speed
KPH
gust
KPH
rain 1hr
cm
rain 24hr
cm
rain mn
cm
humidity
%
barometer
mb
20260507050037 15 114 0.0 3.2 0.00 0.25 0.00 92 1006.4
20260507044548 15 131 0.0 1.6 0.00 0.25 0.00 92 1006.5
20260507043034 15 103 0.0 0.0 0.00 0.25 0.00 92 1006.2
20260507041532 15 108 0.0 1.6 0.00 0.25 0.00 92 1006.4
20260507040033 15 95 0.0 1.6 0.00 0.25 0.00 92 1006.5
20260507034534 15 46 0.0 1.6 0.00 0.25 0.25 92 1006.5
20260507033028 15 104 0.0 6.4 0.00 0.25 0.25 92 1006.4
20260507031529 14 120 0.0 4.8 0.00 0.25 0.25 92 1006.2
20260507030028 14 52 0.0 8.0 0.00 0.25 0.25 92 1006.1
20260507024526 14 94 0.0 1.6 0.00 0.25 0.25 92 1006.1
20260507023026 14 134 0.0 4.8 0.00 0.25 0.25 92 1006.0
20260507021528 14 55 0.0 3.2 0.00 0.25 0.25 92 1006.1
20260507020032 14 319 0.0 1.6 0.00 0.25 0.25 92 1006.0
20260507014522 14 135 0.0 3.2 0.00 0.25 0.25 92 1006.2
20260507013021 14 84 0.0 4.8 0.00 0.25 0.25 92 1006.4
20260507011521 13 127 0.0 6.4 0.00 0.25 0.25 92 1006.6
20260507010025 13 354 0.0 6.4 0.00 0.25 0.25 92 1006.6
20260507004517 13 106 0.0 4.8 0.03 0.25 0.25 92 1006.6
20260507003026 13 115 0.0 6.4 0.03 0.25 0.25 92 1006.6
20260507001523 13 163 0.0 4.8 0.05 0.25 0.25 92 1006.5
20260507000015 13 142 0.0 6.4 0.05 0.25 0.25 92 1006.5
20260506234514 13 139 0.0 4.8 0.03 0.23 0.23 92 1006.3
20260506233013 14 130 1.6 8.0 0.03 0.23 0.23 92 1006.2
20260506231513 14 143 0.0 4.8 0.00 0.20 0.20 92 1006.3
20260506230009 14 333 0.0 4.8 0.00 0.20 0.20 92 1006.5
20260506224508 14 138 0.0 6.4 0.03 0.20 0.20 92 1006.4
20260506223005 15 40 0.0 3.2 0.03 0.20 0.20 92 1006.7
20260506221505 15 165 1.6 8.0 0.05 0.20 0.20 92 1006.8
20260506220004 15 169 0.0 3.2 0.10 0.20 0.20 91 1006.9
20260506214504 15 116 0.0 4.8 0.13 0.18 0.18 91 1007.2
20260506213004 15 68 0.0 6.4 0.15 0.18 0.18 91 1007.1
20260506211600 16 147 0.0 6.4 0.13 0.15 0.15 90 1007.2
20260506210058 16 155 0.0 4.8 0.10 0.10 0.10 89 1007.2
20260506204621 16 119 0.0 8.0 0.05 0.05 0.05 87 1007.4
20260506203057 16 32 0.0 6.4 0.03 0.03 0.03 85 1007.2
20260506201556 17 208 3.2 11.3 0.03 0.03 0.03 82 1007.2
20260506200055 17 132 0.0 4.8 0.00 0.00 0.00 81 1007.3
20260506194604 17 143 0.0 6.4 0.00 0.00 0.00 79 1007.6
20260506193057 18 139 1.6 6.4 0.00 0.00 0.00 76 1007.7
20260506191553 19 149 1.6 8.0 0.00 0.00 0.00 71 1007.7
20260506190050 20 82 0.0 6.4 0.00 0.00 0.00 70 1007.5
20260506184550 20 131 1.6 8.0 0.00 0.00 0.00 69 1007.6
20260506183054 20 124 0.0 6.4 0.00 0.00 0.00 69 1007.6
20260506181548 20 150 0.0 6.4 0.00 0.00 0.00 67 1007.9
20260506180050 21 126 1.6 9.7 0.00 0.00 0.00 65 1008.1
20260506174545 21 84 3.2 11.3 0.00 0.00 0.00 63 1008.4
20260506173048 21 146 1.6 12.9 0.00 0.00 0.00 65 1008.4
20260506171553 21 134 1.6 8.0 0.00 0.00 0.00 64 1008.3
20260506170043 21 117 4.8 16.1 0.00 0.00 0.00 64 1008.4
20260506164541 21 132 3.2 16.1 0.00 0.00 0.00 64 1008.7
20260506163043 21 143 3.2 14.5 0.00 0.00 0.00 64 1008.8
20260506161537 21 139 3.2 11.3 0.00 0.00 0.00 64 1009.1
20260506160035 21 172 1.6 4.8 0.00 0.00 0.00 64 1009.3
20260506154533 21 148 1.6 16.1 0.00 0.00 0.00 64 1009.6
20260506153032 22 46 1.6 14.5 0.00 0.00 0.00 63 1009.8
20260506151536 22 310 3.2 12.9 0.00 0.00 0.00 63 1009.9
20260506150029 21 201 1.6 8.0 0.00 0.00 0.00 64 1009.9
20260506144528 21 183 1.6 9.7 0.00 0.00 0.00 64 1009.7
20260506143026 21 130 1.6 6.4 0.00 0.00 0.00 66 1009.8
20260506141522 21 105 0.0 12.9 0.00 0.00 0.00 67 1009.6
20260506140026 21 137 1.6 9.7 0.00 0.00 0.00 68 1009.7
20260506134515 20 169 1.6 8.0 0.00 0.00 0.00 72 1009.9
20260506133022 19 33 1.6 8.0 0.00 0.00 0.00 74 1010.3
20260506131516 18 341 0.0 8.0 0.00 0.00 0.00 77 1010.3
20260506130006 17 147 0.0 9.7 0.00 0.00 0.00 79 1010.4
20260506124502 17 124 0.0 8.0 0.00 0.00 0.00 81 1010.4
20260506123100 16 149 0.0 9.7 0.00 0.00 0.00 83 1010.4
20260506121557 16 180 1.6 6.4 0.00 0.00 0.00 84 1010.3
20260506120054 16 1 0.0 8.0 0.00 0.00 0.00 85 1010.7
20260506114600 15 34 0.0 6.4 0.00 0.00 0.00 86 1010.9
20260506113059 15 138 0.0 12.9 0.00 0.00 0.00 87 1010.8
20260506111557 15 140 0.0 8.0 0.00 0.00 0.00 87 1010.8
20260506110051 15 101 0.0 8.0 0.00 0.00 0.00 88 1010.8
20260506104557 15 121 0.0 8.0 0.00 0.00 0.00 87 1010.9
20260506103057 15 172 1.6 6.4 0.00 0.00 0.00 87 1010.8
20260506101551 15 169 0.0 8.0 0.00 0.00 0.00 87 1010.7
20260506100048 15 347 0.0 6.4 0.00 0.00 0.00 87 1010.5
20260506094546 15 113 0.0 6.4 0.00 0.00 0.00 87 1010.5
20260506093045 15 126 0.0 6.4 0.00 0.00 0.00 86 1010.5
20260506091544 15 27 0.0 6.4 0.00 0.00 0.00 86 1010.4
20260506090041 15 172 1.6 9.7 0.00 0.00 0.00 85 1010.5
20260506084543 15 195 0.0 6.4 0.00 0.00 0.00 84 1010.5
20260506083039 15 79 0.0 6.4 0.00 0.00 0.00 83 1010.5
20260506081538 15 44 0.0 9.7 0.00 0.00 0.00 83 1010.5
20260506073037 15 92 1.6 8.0 0.00 0.00 0.00 82 1010.4
20260506071633 15 106 1.6 11.3 0.00 0.00 0.00 81 1010.1
20260506061529 16 134 1.6 6.4 0.00 0.00 0.00 78 1010.2